Wind_Speed
16 16 19 18 16 19 21 20 20 21 24 25 24 25 26 26 29 30 28 27 26 26 28 26 22 22 22 20 18 18 17 17 17 15 13 12 14 15 14 13 12 11 11 11 11 11 11 10 10 10 9 8 7 7 7 7 8 9 8 8 9 10 11 11 11 10 9 10 10 9 7 6 5 4 5 6 6 7 8 9 8 7 6 6 6
18 19 20 18 16 20 23 23 23 26 28 28 27 26 26 26 28 29 29 29 28 27 29 26 22 22 21 19 17 17 17 17 17 15 14 14 14 14 13 12 11 11 11 10 10 9 9 9 10 10 9 9 8 8 7 8 9 10 9 9 9 10 11 12 13 11 8 8 9 9 7 6 5 4 5 5 5 6 7 8 8 7 6 6 5
22 22 22 21 20 21 25 25 25 27 29 30 28 24 24 24 24 25 27 27 26 26 27 24 22 22 21 18 17 16 17 17 16 15 15 14 14 13 12 11 10 10 9 9 9 8 9 9 10 10 10 9 9 8 8 9 11 11 10 10 10 10 10 11 13 10 7 8 9 8 8 7 5 5 4 4 5 6 6 7 6 6 7 6 5
23 24 25 25 23 23 26 24 21 23 25 28 28 24 23 24 23 23 23 23 24 26 26 22 22 23 21 19 18 17 17 18 17 16 15 14 14 13 12 11 9 9 8 8 8 8 9 9 10 11 11 10 9 9 9 9 11 13 11 10 10 10 10 11 12 10 8 10 8 6 7 7 5 6 6 5 6 6 6 6 5 5 6 6 5
23 25 26 26 25 24 27 24 21 22 19 21 26 26 24 25 23 22 23 23 25 27 25 23 24 23 22 21 20 19 18 18 18 16 16 15 14 13 11 10 9 9 8 8 8 7 8 9 9 10 10 10 10 9 10 10 12 13 12 11 11 10 10 11 12 11 9 10 9 6 6 5 5 9 8 5 6 5 5 5 6 6 5 5 5
23 24 26 25 25 23 24 25 27 26 17 15 22 25 23 24 22 22 23 23 27 28 25 24 25 23 23 23 21 20 19 18 17 16 16 15 13 12 11 10 10 9 8 8 7 7 7 8 8 8 8 9 9 9 10 10 11 12 12 11 10 9 9 9 11 11 9 9 9 7 5 5 7 11 10 8 8 6 6 6 6 6 7 6 6
22 22 24 24 23 22 22 24 26 24 17 14 19 21 21 23 23 24 24 22 25 28 26 25 25 24 24 22 20 20 18 18 17 15 15 14 13 13 11 10 10 9 9 8 7 7 7 7 8 8 8 8 9 9 9 9 9 10 12 12 10 9 9 7 8 9 9 9 9 7 5 5 8 10 10 9 9 7 7 7 7 7 7 6 6
19 19 21 22 22 22 23 23 22 21 18 16 18 18 19 23 25 26 24 22 25 28 27 26 26 25 23 21 20 20 19 17 16 15 15 14 14 13 11 11 10 10 10 9 9 9 9 8 8 8 8 8 8 8 8 9 9 10 12 13 12 11 9 8 8 9 9 8 9 8 4 4 7 7 7 8 8 9 9 8 8 8 7 6 6
15 15 17 20 20 20 21 21 20 21 19 17 19 19 18 22 25 25 23 22 25 29 28 26 26 25 23 22 20 20 18 16 16 16 16 15 14 13 12 12 12 11 10 10 9 9 9 9 8 8 8 8 8 8 8 9 10 11 12 13 13 12 10 9 8 9 9 8 8 8 6 6 8 7 7 8 8 9 9 10 10 9 7 7 8
13 12 14 15 16 16 17 18 18 20 19 18 19 20 20 21 23 23 23 22 25 28 28 26 25 25 24 23 20 19 19 18 17 17 16 15 15 14 13 12 12 10 8 8 8 8 8 9 8 9 8 8 8 8 8 9 10 11 12 11 12 13 10 9 9 9 9 8 7 8 9 9 8 8 9 9 8 8 9 10 11 10 8 7 7
11 11 12 12 12 13 14 15 16 18 19 18 19 20 20 21 22 22 22 23 25 29 29 26 25 25 25 23 19 18 19 19 19 20 19 18 17 16 14 13 11 10 9 9 8 8 9 9 9 9 9 9 9 8 8 9 10 11 12 12 12 11 10 9 9 9 10 9 8 9 10 10 9 9 10 10 9 10 11 12 11 10 9 7 7
9 10 11 10 10 12 12 12 14 16 17 19 20 19 20 21 23 23 23 24 25 28 30 27 26 27 26 23 20 19 20 21 21 22 21 20 19 17 15 13 12 11 10 9 9 9 9 9 9 9 9 9 9 8 8 8 9 10 11 12 11 10 10 10 10 9 10 9 8 10 10 10 11 8 8 10 9 9 13 13 11 11 10 9 11
8 10 12 11 10 13 14 12 14 15 14 16 18 18 19 21 23 24 24 25 25 26 28 28 27 27 26 23 20 19 20 21 21 20 20 19 18 18 16 14 13 12 11 10 10 9 9 9 9 9 9 9 9 9 9 8 8 9 10 11 10 9 10 10 10 10 10 9 9 10 9 9 10 9 9 11 9 9 13 14 12 12 11 11 12
10 10 10 11 10 11 13 14 15 14 12 15 17 18 19 19 22 24 24 25 26 26 27 28 26 25 25 22 21 20 21 20 20 20 20 18 17 17 15 13 12 12 12 11 11 11 10 9 9 9 9 9 10 10 10 9 8 8 9 9 9 9 10 11 10 9 10 10 10 10 9 8 8 9 9 10 9 10 13 13 12 12 11 11 11
10 9 8 9 9 11 14 14 15 15 14 16 16 17 18 19 22 24 24 24 24 25 27 26 25 25 26 25 23 22 22 21 21 22 21 19 17 17 15 13 12 12 11 11 12 11 11 10 9 9 9 9 9 9 10 10 9 9 8 9 9 9 9 10 10 9 9 10 10 10 9 8 7 7 8 9 9 9 10 12 12 13 12 11 10
8 8 9 10 11 13 14 13 14 15 17 17 15 16 18 19 21 21 22 23 24 26 27 26 26 27 27 27 26 25 24 23 23 24 23 20 18 16 14 13 12 12 12 12 12 11 11 11 9 9 9 9 9 9 9 10 10 9 9 9 9 8 8 9 8 8 8 9 9 9 8 7 8 8 8 8 8 8 9 10 12 12 12 11 11
8 7 8 9 10 12 13 14 15 16 17 16 14 16 18 18 19 20 23 24 25 26 25 26 26 26 26 26 25 24 23 23 24 25 24 21 19 16 15 14 13 12 12 12 12 12 12 11 10 9 9 9 10 10 9 9 9 9 9 9 8 7 8 8 8 7 7 8 9 9 9 8 9 9 9 9 9 10 11 12 13 12 10 10 11
8 7 8 9 10 12 15 16 15 16 17 13 12 16 18 18 20 22 23 21 21 24 25 27 27 27 26 25 24 22 20 21 24 25 23 21 19 17 15 14 13 12 12 12 12 12 11 10 10 10 10 10 10 10 10 10 9 9 8 9 8 7 7 7 7 7 7 8 8 10 10 8 9 10 10 10 10 11 11 11 13 11 7 7 10
8 8 8 9 11 12 14 15 14 16 16 13 14 17 17 18 20 19 16 14 19 26 28 28 29 28 27 25 23 21 20 21 23 23 22 21 19 17 16 14 13 12 11 11 12 12 11 9 9 10 10 9 8 9 9 9 9 9 8 8 8 8 8 7 8 8 8 8 8 10 10 9 10 11 10 11 11 11 10 8 10 9 4 6 9
7 7 7 8 10 11 11 12 13 15 15 15 16 15 14 16 17 15 14 15 22 29 29 29 29 28 26 25 23 22 21 23 24 22 21 21 19 17 16 14 13 12 11 11 12 12 11 10 9 10 9 7 7 8 8 9 10 9 8 8 8 8 8 8 8 8 7 7 7 9 10 9 11 11 10 12 13 13 11 9 10 8 4 6 8
4 5 5 7 9 10 11 12 12 12 14 17 16 13 12 14 13 13 16 20 26 30 30 29 28 26 26 25 24 23 23 23 22 21 20 20 19 17 16 14 13 12 10 10 11 11 11 10 10 10 9 8 7 7 8 8 9 10 9 8 8 7 7 6 7 7 6 7 6 8 10 10 11 10 10 13 15 15 12 10 11 9 6 7 8
4 3 4 5 8 9 10 11 11 11 15 18 16 15 15 14 13 15 19 25 29 31 31 29 27 27 26 25 25 23 22 22 20 19 19 19 18 16 15 14 13 11 10 11 11 12 11 10 10 10 10 9 7 7 8 8 8 9 10 9 8 8 8 7 8 7 6 6 6 7 9 10 11 12 12 14 16 14 12 11 12 10 8 9 9
5 4 4 5 7 10 11 11 12 12 15 18 17 15 14 14 16 20 24 28 30 30 32 31 29 28 26 24 24 22 21 22 20 18 19 19 16 15 14 14 13 11 11 11 11 11 11 10 10 11 11 9 7 7 8 8 8 8 9 10 10 9 10 9 8 7 6 6 7 7 9 11 13 13 15 16 15 14 13 12 12 11 9 10 9
5 5 4 4 3 4 8 12 15 14 14 16 16 13 13 15 18 20 24 29 30 29 32 32 29 28 26 24 23 22 22 23 20 18 19 18 16 15 15 14 13 12 11 11 11 11 11 11 11 11 10 9 7 7 8 8 8 8 8 9 10 10 10 9 9 8 6 6 7 8 9 11 13 13 15 16 16 14 13 12 12 11 10 10 10
6 4 3 4 4 2 4 9 15 15 15 16 15 13 15 18 19 20 24 29 28 28 31 31 29 28 27 26 25 25 26 26 22 19 19 18 16 16 16 15 13 13 12 12 11 11 10 11 11 10 9 8 7 7 8 9 9 9 9 9 9 9 9 9 9 9 8 6 7 8 10 12 13 13 15 16 15 15 14 12 12 12 10 11 11
6 4 3 5 5 6 6 8 11 12 14 14 13 13 16 20 21 21 25 27 27 28 30 31 31 30 29 29 29 27 27 26 23 22 22 19 17 17 17 15 14 13 13 12 11 11 10 10 10 10 9 8 7 7 7 8 9 9 9 9 10 10 10 9 9 8 8 8 7 8 12 14 14 13 15 15 15 14 13 12 11 11 10 11 11
7 6 4 3 4 6 7 7 7 8 10 11 13 15 16 18 20 21 23 25 25 26 27 29 30 29 28 29 27 26 26 25 24 24 23 20 18 18 17 16 15 15 14 13 12 11 11 10 10 9 8 8 7 7 6 7 7 8 8 8 10 10 10 10 9 8 8 9 8 9 12 14 14 13 13 14 15 15 14 13 12 11 10 11 11
9 8 6 4 4 4 6 7 7 8 10 12 16 17 16 17 21 22 23 24 24 23 24 26 27 25 25 24 22 23 25 24 24 26 24 22 21 19 17 16 16 16 16 16 14 13 12 11 10 10 9 8 7 6 6 6 6 6 7 7 8 8 8 9 9 8 9 10 9 9 11 13 15 14 14 14 15 15 15 14 12 11 11 11 10
10 9 8 8 8 7 6 8 8 8 11 14 17 18 16 16 21 25 28 27 24 22 23 25 24 21 22 23 23 24 25 25 26 27 26 24 23 20 19 19 18 18 17 16 14 12 11 11 11 11 11 11 10 9 9 9 8 7 6 5 6 7 7 8 8 8 9 9 9 9 11 12 13 14 14 14 13 13 13 12 10 10 10 10 10
10 9 8 9 10 9 9 11 12 12 13 16 18 19 18 19 21 25 27 25 22 22 21 21 20 19 19 20 24 26 26 25 27 28 27 26 23 21 21 20 19 18 17 16 13 11 10 9 10 11 12 11 10 9 9 9 9 8 7 5 5 6 7 7 7 7 8 8 9 10 11 12 12 13 13 13 12 11 11 11 10 10 10 10 9
10 9 9 10 11 11 12 14 17 17 17 18 18 19 20 22 24 25 23 20 19 22 21 18 16 17 18 18 20 23 23 24 27 29 28 25 23 22 22 21 20 18 17 15 14 12 11 11 11 11 10 9 9 8 8 7 7 7 7 6 5 6 7 8 7 6 6 7 8 9 11 12 12 12 13 13 13 12 12 12 12 12 12 12 10
10 10 10 12 13 12 13 15 17 18 18 19 18 17 18 20 23 24 22 19 19 21 22 20 18 19 20 20 20 23 25 26 29 29 27 24 23 23 21 19 17 16 14 13 14 14 13 13 12 10 9 9 8 8 7 7 6 6 6 6 5 5 6 7 7 6 6 6 7 7 9 12 13 13 14 14 14 14 14 13 13 13 14 14 12
11 12 12 13 14 15 16 17 17 17 18 19 19 18 16 16 18 19 17 16 16 17 19 20 19 18 19 19 20 22 24 24 24 23 21 18 16 15 13 11 12 13 13 14 16 15 13 12 12 10 9 9 8 8 7 7 6 6 6 6 5 5 5 6 6 7 7 7 7 7 8 10 13 14 14 13 12 13 14 14 14 14 15 14 14
13 13 14 15 17 18 20 21 20 20 19 20 21 22 21 19 18 18 16 16 18 18 18 19 19 19 18 17 17 19 19 18 17 15 13 11 11 12 12 12 11 12 13 15 15 14 12 11 11 10 9 8 8 7 7 6 6 5 5 5 5 5 6 6 6 7 8 8 8 8 7 8 10 12 12 12 11 11 12 14 14 15 15 15 15
13 14 15 17 19 20 21 22 22 22 22 20 20 23 24 22 22 22 20 18 18 18 19 19 19 18 17 15 13 14 15 16 16 15 13 12 12 13 15 15 15 15 14 14 13 12 11 11 10 10 9 8 7 7 6 6 6 5 5 5 6 6 7 7 7 8 8 8 9 9 8 8 9 10 11 12 12 12 13 14 14 15 15 15 16
14 15 19 24 25 24 23 23 23 23 23 22 22 21 21 21 21 22 20 18 17 16 17 18 17 17 17 15 13 12 13 14 14 14 13 12 14 15 16 15 14 13 12 12 11 10 10 10 10 9 9 8 8 7 7 7 7 6 6 7 7 7 8 9 9 9 9 10 10 11 11 11 11 12 14 14 14 15 15 16 17 17 17 17 18
18 22 27 30 31 30 28 27 27 26 24 24 24 24 22 22 22 22 21 20 18 17 17 18 19 19 18 16 14 14 14 14 13 13 12 12 13 14 14 13 12 11 11 11 12 11 10 10 10 10 10 9 8 8 8 8 8 8 8 9 8 9 10 11 12 12 12 13 14 14 14 14 14 16 18 17 17 18 18 19 20 20 21 21 21
24 27 29 29 29 29 29 28 28 28 27 25 24 24 25 25 25 24 24 23 23 22 20 21 21 20 19 19 17 16 16 15 14 14 14 13 12 12 12 11 9 8 7 8 8 8 8 8 8 8 8 7 7 7 8 8 8 8 9 9 9 9 11 12 12 13 13 14 15 16 16 16 18 20 20 20 20 21 21 22 23 24 24 24 23
23 24 24 24 24 24 24 24 24 24 23 21 21 22 24 25 25 24 25 25 25 23 22 21 21 19 19 19 18 17 17 16 15 15 14 14 13 12 11 10 9 8 6 5 5 4 4 4 4 4 5 5 6 7 7 8 8 9 9 10 10 10 12 12 12 13 13 13 15 16 17 17 18 20 21 21 21 22 22 23 23 24 25 26 25
22 21 21 22 22 21 20 21 20 19 17 16 15 16 19 22 22 21 22 22 21 20 19 20 20 19 17 17 16 16 15 14 13 13 12 12 11 10 9 8 8 7 6 5 5 4 4 4 5 5 6 7 8 9 9 10 11 12 12 13 14 14 16 16 16 16 17 17 17 18 19 21 21 21 22 23 23 23 23 23 23 24 24 25 25
21 20 20 21 22 23 23 21 20 18 15 13 11 11 13 15 16 16 17 17 16 15 14 14 15 14 14 14 12 12 11 10 9 9 9 8 7 6 5 5 4 4 4 3 3 4 4 5 6 7 8 9 10 11 12 12 13 14 15 16 17 18 18 19 20 20 20 21 20 19 22 26 26 24 26 27 27 27 27 27 27 27 26 26 26
19 17 16 18 20 20 21 20 19 18 16 14 12 11 11 12 11 12 14 14 13 13 12 11 11 10 9 9 8 8 7 6 6 5 4 4 4 3 2 2 1 1 2 2 3 4 5 6 7 8 9 10 11 12 13 13 14 15 16 17 18 19 19 19 21 21 21 23 23 23 26 29 29 27 28 30 30 31 32 32 32 31 30 30 30
19 18 17 17 17 17 17 16 16 16 16 15 13 11 12 13 14 14 14 13 13 13 12 11 11 10 9 8 7 6 4 3 3 3 2 2 2 2 1 1 2 2 3 3 4 5 5 6 7 8 9 10 11 12 13 14 15 16 16 17 18 19 19 20 21 22 22 23 24 26 29 29 28 28 29 30 30 32 33 34 34 33 33 32 32
17 17 15 14 14 14 14 13 13 12 13 13 13 11 11 13 15 15 14 13 13 12 10 10 9 9 9 8 7 6 4 3 3 2 1 1 0 0 0 0 1 1 2 3 4 5 5 6 7 8 8 9 11 12 14 14 15 16 17 17 18 20 20 20 21 21 22 23 25 27 28 28 27 28 28 28 29 29 30 31 32 33 33 33 34
12 12 11 11 11 12 12 13 13 13 12 12 11 10 9 11 13 14 13 13 12 11 9 8 7 7 6 6 5 5 4 3 3 2 2 2 2 2 2 2 2 2 2 3 4 5 5 5 6 6 7 8 9 11 13 14 15 16 17 17 18 20 21 22 22 22 23 25 26 28 28 28 28 29 29 29 29 28 28 28 27 28 29 30 32
10 10 10 10 11 11 12 13 14 14 13 12 10 9 9 10 11 12 12 12 11 10 9 8 7 6 5 5 4 3 3 3 2 2 2 2 1 1 1 1 2 2 3 3 4 4 4 5 5 5 6 7 7 8 10 12 14 15 16 17 18 19 20 21 21 22 24 26 27 27 27 27 28 28 28 28 29 29 28 27 26 26 26 26 27
9 9 9 9 9 10 11 12 13 14 13 11 10 10 11 11 11 11 11 10 9 9 8 7 7 6 5 5 4 3 4 4 3 3 3 2 2 1 1 1 1 2 2 3 3 3 3 3 4 4 4 5 5 6 8 10 12 13 15 16 17 18 18 19 18 20 22 25 27 26 25 25 26 26 26 26 27 27 27 27 26 26 26 27 26
7 7 7 7 6 7 9 10 12 13 12 11 10 10 10 10 10 11 10 9 8 8 7 7 6 6 5 5 5 5 5 5 5 4 4 3 2 2 2 2 2 2 2 2 2 2 2 2 2 3 3 3 4 5 7 10 12 12 13 14 14 15 16 16 17 19 22 24 24 24 24 23 22 21 20 19 19 18 19 20 20 20 22 24 25
5 5 5 5 5 5 6 7 10 11 11 10 9 9 9 9 10 10 10 9 8 8 7 7 6 6 6 6 6 6 6 6 6 5 3 3 3 3 3 3 3 3 3 3 2 2 2 2 2 3 3 3 4 5 8 10 11 12 13 14 13 14 15 15 16 18 20 20 20 20 19 16 14 13 13 13 12 13 14 15 15 16 18 20 21
4 4 4 4 4 4 4 6 8 8 9 9 8 8 8 8 9 9 9 8 8 8 8 7 6 6 6 7 6 6 7 7 7 6 5 5 5 5 5 4 4 4 3 2 2 3 3 3 4 5 5 5 6 7 8 9 10 10 11 12 13 14 14 15 16 16 17 18 17 15 13 10 9 10 11 11 11 12 13 13 13 14 17 20 21
3 3 3 3 3 3 3 4 6 6 6 6 6 6 7 7 7 7 7 6 7 7 6 6 5 4 5 6 6 6 7 7 6 5 5 5 5 6 6 6 5 3 3 3 4 4 4 5 5 6 7 7 8 9 9 10 11 11 10 10 11 13 14 15 15 15 15 15 14 11 9 9 9 9 10 10 11 12 13 14 13 12 13 16 19
Wind_Direction
187 183 183 182 188 199 203 200 198 194 184 179 179 176 183 195 200 202 204 203 199 194 191 187 186 192 192 188 186 184 183 187 187 184 183 185 190 193 195 196 200 205 204 203 207 211 210 206 209 206 197 194 196 195 198 204 199 194 200 199 192 188 179 171 161 154 154 148 147 145 140 145 149 157 165 175 191 192 193 194 189 189 175 169 164
190 188 194 195 194 206 207 197 193 189 182 184 190 191 191 193 197 200 200 201 199 195 193 188 187 191 190 187 185 183 185 187 188 188 188 190 193 192 194 197 203 210 208 207 207 207 206 202 209 207 192 189 193 189 195 202 197 192 195 194 189 183 178 173 162 156 165 157 145 143 138 136 139 146 153 160 175 178 185 193 190 186 181 180 165
194 195 199 199 196 205 209 197 192 192 192 194 193 193 195 194 195 197 196 196 194 195 195 189 188 188 186 185 183 182 187 187 187 192 194 195 194 192 195 199 205 209 208 206 203 204 204 200 207 205 189 187 189 186 195 201 199 196 193 192 189 180 175 175 167 162 174 167 155 160 156 144 143 151 156 162 169 176 185 192 194 193 195 191 165
197 200 201 201 197 202 207 198 188 192 201 206 200 193 193 194 195 195 194 193 193 196 195 191 189 186 184 184 183 184 189 191 191 195 196 194 193 194 198 202 203 203 201 201 200 204 201 197 202 199 189 187 186 187 195 201 202 198 191 191 191 182 174 177 176 170 171 167 167 177 166 164 171 160 161 165 163 177 191 194 203 203 204 197 170
198 203 201 202 199 200 205 199 191 193 196 204 204 198 195 193 194 196 196 194 197 198 194 191 189 186 186 185 184 187 190 193 194 193 192 190 192 196 198 198 194 194 197 195 196 199 194 190 192 191 188 186 187 191 195 201 202 196 193 192 191 187 182 187 186 176 171 172 177 177 166 182 192 166 159 151 145 156 173 189 212 209 201 200 186
201 203 200 203 200 199 204 203 202 203 198 195 201 202 199 193 192 199 200 197 201 199 193 192 191 187 188 187 186 188 189 190 191 189 189 189 190 192 190 187 187 190 192 190 191 191 186 183 181 184 186 185 191 195 195 200 197 195 198 193 188 190 190 197 194 180 178 186 191 187 178 189 184 173 169 154 142 147 162 177 200 205 198 203 210
202 202 201 203 201 198 204 206 203 203 199 191 196 202 199 193 195 203 201 197 200 199 192 193 194 191 191 189 187 188 186 186 188 184 184 186 186 183 180 180 184 186 185 186 188 187 183 182 179 179 183 187 193 192 191 193 189 195 202 190 184 191 189 195 200 190 189 200 203 198 199 198 184 183 176 159 152 156 169 173 171 181 187 199 218
199 202 203 204 205 204 207 208 200 198 200 195 196 197 191 191 197 202 200 196 199 198 192 193 195 194 191 189 188 189 186 184 183 179 179 181 179 176 174 176 179 182 186 187 188 190 182 177 178 177 182 187 187 185 186 187 185 194 201 193 186 188 187 189 198 197 195 209 211 197 195 190 182 189 183 170 169 162 167 177 170 169 179 183 175
199 203 206 207 211 210 212 214 203 200 204 200 200 199 192 193 196 197 198 197 198 196 191 192 194 192 189 188 189 190 187 183 180 177 176 175 172 171 170 173 180 183 186 186 187 192 182 173 177 178 182 183 179 182 186 188 190 195 198 198 192 187 186 187 195 201 199 208 211 194 184 181 180 192 189 179 176 164 163 177 176 166 171 170 149
192 195 204 209 214 216 220 220 207 203 204 200 204 204 198 195 193 194 199 198 196 194 191 191 192 190 187 187 188 187 183 180 177 174 174 171 169 169 168 173 183 184 180 180 181 183 179 175 178 181 184 181 175 180 189 192 196 198 197 201 199 191 188 189 192 199 199 203 205 197 196 195 192 194 189 182 177 168 160 168 172 162 154 150 137
179 183 195 203 209 212 215 214 208 205 203 203 208 207 201 197 192 193 198 195 193 193 192 192 191 189 187 186 186 183 179 177 175 174 172 169 166 167 168 171 179 182 181 185 183 181 182 179 178 183 183 178 175 177 187 193 197 200 199 202 202 193 191 194 193 196 198 201 203 204 206 207 210 201 186 185 184 171 158 158 162 155 146 147 148
167 175 184 188 197 207 212 213 210 205 202 207 211 207 202 200 196 193 194 192 191 192 193 191 189 188 186 185 184 182 180 177 176 175 171 167 167 167 169 170 174 179 183 186 185 184 187 182 177 181 180 177 178 180 186 189 192 198 199 200 199 194 193 193 194 200 200 201 207 210 212 213 221 221 193 192 197 176 159 156 155 151 147 152 155
159 172 181 182 190 206 208 204 202 199 204 211 211 206 201 200 198 195 194 193 190 190 191 189 187 186 185 184 182 181 181 179 177 174 168 167 168 167 166 168 170 174 176 178 180 180 184 184 181 181 179 179 180 183 189 188 190 197 200 198 191 189 196 192 194 206 203 199 204 211 222 225 219 216 200 196 197 171 154 153 157 156 150 152 155
157 159 173 181 184 191 186 182 186 189 208 221 215 210 205 202 201 197 195 194 189 187 187 185 183 181 180 180 180 179 180 178 177 173 168 168 168 165 164 166 168 168 168 172 177 181 184 182 181 183 182 182 183 186 192 193 196 202 199 191 180 182 194 189 190 207 208 202 201 202 216 225 212 201 194 189 182 170 159 155 159 157 152 155 157
145 141 155 168 172 174 170 171 172 174 195 211 214 216 213 209 207 201 197 194 187 183 182 181 178 175 176 177 177 176 176 176 177 174 169 167 166 164 162 163 164 162 165 172 177 183 185 176 173 181 183 186 188 187 192 195 198 204 198 185 179 186 191 186 187 201 208 206 204 204 205 209 208 198 191 188 183 179 169 161 163 159 155 158 158
141 150 163 167 172 175 173 174 172 174 187 197 207 217 216 214 211 204 200 196 187 179 177 176 176 176 177 177 174 174 174 174 176 173 166 163 163 163 161 160 160 161 166 172 173 178 180 169 167 179 184 190 194 192 193 193 194 202 202 188 185 189 186 182 188 197 204 204 204 208 202 200 207 200 194 196 194 186 174 169 173 168 162 162 161
148 160 174 184 188 192 194 193 187 183 184 188 200 210 213 216 216 209 202 194 182 174 170 172 176 179 179 178 175 174 175 174 174 170 162 160 161 162 160 158 158 160 162 164 167 169 167 164 170 179 187 195 199 197 194 190 189 196 197 189 188 189 182 183 188 193 203 202 200 201 196 199 208 200 190 192 191 187 184 182 178 174 172 172 169
142 158 176 188 191 198 204 203 198 190 183 180 191 205 216 225 223 214 202 191 177 171 171 174 178 179 179 178 175 175 175 175 172 167 161 159 160 161 160 157 156 155 153 155 161 161 156 161 172 178 188 196 198 199 196 191 191 191 187 185 185 184 184 188 190 192 200 201 197 194 190 196 204 197 190 188 184 185 194 193 177 170 180 187 178
135 153 171 185 190 195 199 199 194 184 176 175 186 202 216 223 217 206 196 186 177 175 176 176 176 177 177 177 174 173 174 174 172 168 164 162 162 162 160 157 155 153 150 149 154 156 152 157 169 176 184 189 192 196 192 188 194 194 189 187 186 184 185 189 189 191 197 198 197 193 191 198 201 194 190 189 182 179 189 193 176 168 176 185 180
135 150 167 181 189 192 192 188 182 175 170 171 180 189 202 216 215 203 197 185 172 171 174 176 174 174 176 176 174 173 173 173 173 170 166 165 165 165 162 158 155 153 151 149 152 157 156 157 165 170 174 176 181 188 181 181 191 191 184 183 187 185 183 182 180 178 181 185 191 193 193 198 196 191 191 191 184 176 176 182 180 176 171 170 174
130 148 169 178 184 188 183 175 173 175 170 168 172 171 182 208 212 197 190 176 167 171 176 176 172 171 175 176 175 175 174 172 172 170 168 167 168 168 164 160 157 155 153 152 155 160 160 160 162 163 168 172 174 178 171 168 178 179 173 171 174 172 168 166 164 160 161 168 175 187 193 193 188 186 192 192 184 173 169 174 178 176 171 167 168
93 117 155 168 180 183 177 172 171 175 172 166 164 165 177 196 188 173 175 169 168 176 178 173 171 172 178 179 176 176 175 171 169 168 171 172 170 170 167 163 160 158 155 156 161 163 160 162 162 163 168 169 167 171 165 157 162 170 169 165 159 156 156 153 147 142 144 150 153 170 186 187 182 187 193 187 178 172 171 173 173 170 164 163 163
71 84 106 139 167 173 173 177 176 174 173 167 158 156 171 182 169 166 173 171 171 175 173 171 172 175 180 181 178 177 174 171 169 170 174 174 172 171 170 166 163 161 160 163 165 163 159 160 163 165 167 166 166 170 164 156 157 161 163 163 156 153 155 148 139 136 136 139 145 157 176 181 180 190 194 182 172 174 177 175 172 169 162 161 163
62 72 92 117 143 173 176 177 174 165 163 166 161 155 166 173 167 169 173 172 173 175 172 170 172 176 181 182 178 175 174 173 172 174 177 176 175 175 172 168 167 166 166 165 162 160 159 160 160 163 166 166 169 171 164 161 160 156 158 161 157 154 153 148 143 141 134 133 143 150 166 177 176 183 186 177 172 175 176 177 176 175 171 168 168
54 68 124 148 141 155 173 180 183 169 154 162 170 168 171 170 165 169 171 169 171 173 171 172 174 180 185 183 178 177 178 176 172 175 179 177 176 177 172 169 168 167 165 161 159 159 160 159 158 162 165 164 166 168 167 171 170 163 159 159 157 155 153 152 151 148 137 131 143 152 161 169 171 174 176 173 174 176 175 179 181 179 180 179 178
50 71 135 161 160 170 175 188 195 174 152 160 170 169 173 170 162 166 170 169 171 174 175 177 181 187 189 184 180 180 180 178 173 173 177 177 177 178 174 169 166 164 159 153 153 155 155 157 159 162 165 164 163 162 164 172 174 171 168 167 167 166 162 160 158 153 147 138 137 151 160 163 167 174 174 171 174 178 177 181 185 183 185 188 191
48 60 91 141 169 179 183 190 194 173 161 171 173 165 170 172 164 163 169 171 172 175 177 181 187 192 192 185 180 178 178 179 175 172 174 178 180 180 175 168 164 159 152 145 146 147 145 148 155 157 161 161 158 155 155 162 171 176 176 175 177 175 175 176 170 164 164 153 142 150 160 162 164 169 173 172 172 177 178 182 187 188 188 195 203
45 48 60 85 124 151 170 175 176 177 178 181 181 175 172 174 171 167 166 168 172 173 176 184 189 193 193 188 181 177 178 179 173 171 177 180 180 179 175 168 163 157 150 144 143 142 139 142 146 148 155 155 150 153 155 153 162 174 176 178 183 181 183 188 184 179 178 169 155 152 158 164 166 168 174 175 175 180 183 184 191 195 197 206 215
39 37 48 72 100 122 150 165 162 169 176 178 185 188 178 169 172 172 166 163 168 172 174 180 183 183 185 187 183 179 178 177 174 175 178 180 179 178 172 165 158 153 149 144 142 142 141 143 146 149 153 153 154 163 166 159 156 162 169 176 181 183 185 190 190 189 187 181 171 165 162 167 172 173 177 180 181 186 187 188 200 208 210 216 219
46 45 56 80 103 119 140 156 153 152 165 175 183 187 173 152 154 164 163 160 163 166 166 170 173 172 175 180 180 178 175 174 176 178 178 178 178 174 168 164 160 156 153 149 148 148 147 151 157 157 155 153 152 155 157 159 162 163 168 171 171 176 181 184 185 187 188 185 184 182 176 174 176 177 180 184 186 192 196 201 210 215 215 217 215
59 59 71 94 109 117 128 143 147 147 156 167 176 182 173 156 150 150 148 150 155 154 149 147 153 161 163 162 164 167 169 172 176 178 178 176 173 169 165 163 160 159 158 157 159 163 165 168 171 169 164 161 159 155 151 156 161 164 169 170 167 169 170 173 177 178 183 187 188 193 194 191 190 191 194 197 201 208 215 221 225 222 218 218 218
65 67 79 98 109 113 120 133 144 150 156 160 167 176 171 163 160 155 150 154 159 158 153 149 156 166 166 164 164 168 173 177 175 174 173 169 166 165 166 168 171 177 183 182 179 178 181 183 183 180 176 171 170 168 163 160 157 161 167 164 166 174 168 168 173 170 172 181 183 192 202 204 206 210 213 217 220 224 228 229 231 228 224 225 226
68 72 82 96 104 110 117 125 135 146 153 155 160 168 164 158 159 157 153 152 151 154 158 158 162 164 161 165 170 167 167 168 166 163 163 164 171 178 189 206 212 207 200 192 188 187 189 191 192 193 189 184 181 177 174 171 165 166 167 164 171 183 179 180 187 185 187 189 188 196 206 212 216 218 220 224 228 232 234 232 233 233 233 235 237
74 75 79 90 101 109 116 119 124 131 139 145 150 152 150 149 150 145 138 133 132 139 145 146 146 146 146 154 164 164 164 166 170 176 184 198 219 221 215 212 202 189 181 180 186 191 192 192 197 200 200 197 197 193 192 190 183 179 182 184 189 196 198 203 208 208 210 210 208 210 214 223 228 226 227 229 230 236 239 238 238 239 240 242 242
80 81 82 92 103 110 112 113 116 119 123 127 130 130 130 132 136 135 134 134 133 131 131 131 134 140 144 152 163 173 180 181 185 194 200 205 210 201 187 178 173 173 177 179 181 184 187 190 195 200 204 206 208 210 210 211 209 206 205 208 212 217 221 226 229 229 232 233 232 232 234 239 243 244 244 241 240 243 246 246 247 246 246 248 247
84 89 92 96 100 101 101 101 104 109 116 121 122 120 121 124 127 126 127 130 130 125 121 122 128 134 140 146 153 158 163 165 169 176 180 182 183 179 174 173 174 175 179 182 182 184 187 193 196 201 210 215 218 221 222 223 225 225 226 231 234 234 236 239 242 244 246 247 248 248 249 251 254 256 255 253 253 254 255 257 258 257 255 255 254
94 98 100 100 99 97 95 93 93 94 99 107 113 116 119 121 119 118 121 124 125 122 119 120 124 127 129 133 138 141 142 145 151 158 162 171 179 178 175 178 181 182 187 191 193 192 193 198 203 204 208 215 222 229 233 237 239 239 240 243 243 243 246 247 248 250 250 252 252 251 252 254 256 256 256 256 258 259 260 262 262 263 263 261 260
103 104 104 102 100 100 98 95 92 90 88 91 97 103 108 110 108 109 115 117 116 116 118 120 122 123 124 126 130 134 136 140 146 151 152 156 165 165 162 162 163 168 182 188 189 189 191 200 208 205 207 219 227 234 241 247 250 251 252 252 250 252 256 257 256 256 255 255 255 254 252 252 254 256 257 259 259 259 260 261 262 263 264 262 261
107 107 105 102 100 100 101 100 98 96 96 96 96 98 101 102 102 103 106 107 108 110 112 114 115 116 119 123 126 128 130 133 137 140 140 141 144 142 140 142 142 148 162 172 175 182 188 204 222 226 234 242 245 249 254 256 258 260 261 262 260 260 262 262 262 263 263 263 264 264 261 256 256 260 262 262 261 260 260 260 261 262 263 262 262
99 98 97 96 95 93 91 91 92 95 101 106 108 109 107 104 105 107 106 105 105 105 106 108 110 112 114 117 120 123 125 127 129 131 132 134 136 136 140 147 152 160 171 179 188 199 209 227 245 255 262 265 266 266 266 265 267 268 267 267 266 264 266 266 265 266 266 266 267 268 267 263 261 263 265 265 265 264 263 261 260 260 261 263 264
93 92 93 93 91 87 81 79 79 81 85 91 99 109 109 106 109 111 106 103 101 100 101 103 105 109 113 115 118 121 122 124 125 127 131 135 140 145 150 154 161 173 186 197 213 232 247 255 260 263 266 267 268 269 268 267 267 267 266 266 264 264 266 266 266 265 264 262 260 258 260 263 264 262 263 264 265 264 263 262 260 259 259 259 258
94 92 92 91 90 87 83 78 75 72 71 70 74 82 90 95 99 96 93 92 93 92 91 91 94 99 104 109 114 119 124 127 124 124 129 134 143 159 168 174 192 222 247 259 264 268 271 275 277 277 277 276 274 274 275 274 272 271 270 269 268 269 268 266 266 265 262 261 260 256 257 263 265 262 260 260 260 261 261 261 260 259 258 258 258
100 97 94 91 89 88 85 80 75 69 64 59 58 63 75 84 87 83 80 80 80 80 79 81 87 91 94 98 102 105 112 122 127 137 147 146 162 187 205 230 252 267 274 279 282 283 284 285 287 287 287 287 286 283 282 282 281 280 278 276 275 275 273 271 270 269 267 266 264 262 263 266 267 265 263 261 259 259 259 260 260 259 257 256 257
102 100 98 93 89 86 83 79 73 68 64 59 54 54 63 74 81 84 85 84 81 78 77 77 79 81 84 89 92 92 95 97 97 96 86 74 80 66 37 297 286 289 287 287 286 286 288 287 288 291 293 294 294 292 290 288 287 286 285 283 282 281 279 277 276 274 273 271 269 270 272 274 274 272 271 269 267 264 262 261 261 260 259 257 256
101 99 95 90 85 83 80 77 72 68 66 65 62 60 63 73 79 82 83 85 85 85 87 87 84 83 82 83 82 79 76 72 65 54 40 28 17 19 18 8 3 347 325 317 307 301 299 296 294 300 304 304 303 301 298 296 292 289 287 285 284 283 283 282 281 280 278 276 275 277 280 282 281 281 280 280 278 276 273 271 268 265 261 258 257
110 106 100 92 87 84 79 75 73 69 68 70 74 77 79 81 82 79 75 73 73 73 76 78 78 80 81 81 80 77 73 66 60 56 47 38 40 40 11 344 342 323 311 312 309 308 314 313 313 320 318 312 313 312 308 304 299 295 292 289 286 284 282 281 281 281 279 277 277 279 280 280 279 280 280 280 279 279 278 278 277 274 268 262 259
120 111 103 92 82 77 72 68 68 65 64 70 80 87 89 87 84 79 75 73 70 69 69 69 71 73 71 67 62 59 61 57 52 58 56 48 54 63 22 342 332 320 322 326 323 329 339 336 336 345 341 338 342 335 318 307 303 300 297 295 294 292 290 288 286 284 282 282 284 285 285 282 280 280 279 279 279 279 279 279 278 276 273 270 266
125 114 105 96 85 78 71 67 67 63 60 63 71 78 84 85 83 80 76 75 76 77 77 77 78 78 78 77 69 64 66 64 59 65 69 59 52 53 36 17 6 354 357 4 357 359 359 355 2 5 358 6 10 344 317 309 308 304 301 300 300 298 296 294 291 288 289 291 294 296 296 296 295 293 290 287 285 282 282 281 277 273 273 273 270
133 129 119 111 102 91 77 71 70 64 58 58 63 67 69 70 71 70 69 69 69 68 68 71 72 72 74 74 68 67 74 72 63 56 53 48 49 43 27 18 14 10 3 355 4 31 32 11 27 37 29 27 16 345 324 318 315 310 306 306 305 303 300 297 295 295 297 300 303 306 309 310 306 301 297 294 288 281 277 276 275 273 271 271 269
164 157 142 137 129 111 88 79 77 69 58 55 58 62 64 64 63 62 62 64 64 60 56 55 57 67 73 69 65 66 67 65 62 52 32 21 25 27 21 13 5 3 9 15 33 59 62 50 54 59 51 35 17 359 344 337 331 323 314 308 305 304 304 303 303 304 307 309 314 319 319 315 305 298 296 291 284 280 278 275 275 274 273 271 271
178 175 167 158 147 137 113 92 87 79 65 57 55 57 58 58 60 61 61 66 66 60 52 45 41 51 64 58 51 53 54 51 51 51 38 20 11 13 19 25 27 27 38 56 68 77 77 68 58 52 41 26 17 11 5 0 355 348 337 321 308 303 301 301 303 307 311 316 322 324 315 306 303 300 295 290 288 289 288 285 282 278 275 277 277
Height
1494 1495 1496 1497 1498 1498 1499 1500 1502 1503 1504 1505 1506 1508 1509 1510 1512 1514 1517 1519 1521 1523 1526 1528 1530 1532 1534 1536 1539 1540 1542 1543 1545 1547 1548 1549 1550 1550 1551 1552 1553 1554 1555 1556 1556 1556 1557 1558 1559 1560 1561 1562 1563 1564 1564 1564 1564 1565 1566 1566 1567 1568 1568 1569 1570 1571 1571 1572 1573 1573 1574 1574 1574 1575 1575 1576 1576 1576 1576 1576 1576 1576 1577 1578 1578
1492 1494 1495 1496 1497 1497 1497 1500 1501 1502 1502 1503 1504 1506 1507 1509 1510 1513 1515 1518 1520 1522 1524 1527 1529 1531 1533 1535 1537 1539 1541 1542 1544 1546 1547 1548 1549 1550 1551 1552 1553 1554 1555 1555 1556 1556 1557 1558 1558 1559 1560 1562 1563 1563 1564 1564 1564 1565 1566 1566 1567 1567 1568 1569 1570 1571 1571 1571 1572 1574 1574 1574 1574 1574 1575 1575 1576 1576 1576 1576 1576 1576 1576 1576 1577
1489 1491 1493 1494 1495 1496 1497 1499 1500 1501 1502 1503 1504 1505 1507 1509 1510 1512 1514 1516 1519 1521 1523 1526 1529 1531 1533 1535 1537 1539 1540 1541 1543 1545 1546 1547 1548 1549 1550 1551 1552 1553 1554 1555 1556 1556 1556 1557 1558 1558 1560 1561 1562 1563 1564 1564 1564 1565 1565 1566 1566 1567 1568 1569 1570 1571 1572 1572 1573 1573 1574 1574 1574 1574 1575 1575 1575 1576 1576 1576 1576 1576 1576 1576 1577
1486 1488 1490 1492 1493 1495 1496 1497 1499 1500 1501 1502 1504 1505 1507 1509 1510 1512 1514 1516 1518 1520 1523 1526 1528 1530 1532 1534 1536 1538 1539 1540 1542 1544 1545 1547 1548 1549 1550 1551 1552 1553 1554 1555 1555 1556 1556 1556 1557 1557 1559 1560 1561 1563 1563 1563 1564 1564 1565 1565 1566 1567 1568 1569 1569 1570 1571 1572 1572 1572 1573 1574 1574 1574 1574 1574 1575 1576 1576 1576 1576 1577 1577 1577 1578
1484 1486 1488 1490 1491 1493 1495 1497 1498 1498 1500 1501 1503 1505 1506 1508 1510 1512 1514 1516 1518 1520 1522 1524 1526 1529 1531 1533 1535 1536 1538 1540 1541 1543 1545 1546 1547 1548 1549 1550 1551 1553 1554 1554 1555 1555 1556 1556 1556 1557 1558 1559 1560 1561 1562 1562 1563 1563 1564 1565 1566 1567 1567 1568 1568 1569 1570 1571 1571 1571 1572 1573 1573 1573 1574 1574 1575 1576 1576 1577 1577 1577 1578 1578 1578
1480 1483 1486 1488 1490 1492 1494 1495 1496 1497 1499 1500 1502 1504 1506 1507 1510 1512 1514 1516 1517 1519 1521 1523 1525 1528 1530 1531 1533 1535 1537 1539 1541 1542 1544 1545 1547 1548 1549 1550 1551 1552 1553 1554 1554 1555 1555 1555 1556 1557 1557 1558 1559 1560 1561 1562 1562 1563 1563 1564 1565 1566 1567 1568 1568 1569 1570 1570 1570 1570 1571 1572 1572 1572 1573 1574 1575 1576 1576 1577 1577 1577 1578 1579 1579
1478 1480 1484 1487 1489 1491 1492 1493 1495 1497 1499 1500 1501 1504 1505 1507 1510 1512 1514 1515 1516 1518 1520 1522 1525 1527 1529 1531 1533 1535 1537 1539 1540 1542 1543 1545 1546 1547 1548 1550 1551 1552 1553 1554 1554 1554 1555 1555 1556 1556 1557 1558 1558 1559 1560 1561 1562 1562 1563 1564 1565 1566 1567 1568 1568 1568 1569 1569 1569 1570 1570 1570 1571 1571 1571 1572 1574 1575 1576 1576 1577 1578 1578 1579 1579
1477 1480 1483 1486 1488 1489 1491 1492 1494 1496 1498 1499 1501 1503 1504 1507 1509 1511 1513 1514 1515 1516 1518 1520 1523 1525 1528 1531 1533 1535 1537 1538 1540 1542 1543 1544 1545 1547 1548 1549 1550 1551 1552 1553 1553 1553 1554 1555 1555 1556 1556 1557 1558 1559 1560 1560 1561 1562 1562 1563 1564 1565 1566 1567 1568 1568 1569 1569 1568 1569 1570 1570 1570 1570 1570 1571 1572 1574 1575 1576 1578 1578 1579 1579 1580
1477 1480 1483 1485 1487 1489 1490 1491 1493 1495 1496 1498 1500 1502 1504 1505 1507 1509 1511 1512 1513 1515 1517 1519 1522 1524 1527 1530 1532 1534 1536 1538 1539 1541 1543 1544 1545 1547 1548 1549 1550 1550 1551 1552 1552 1553 1553 1554 1555 1555 1556 1556 1557 1558 1559 1560 1560 1561 1561 1562 1563 1564 1565 1566 1567 1567 1568 1568 1568 1568 1569 1569 1569 1570 1570 1570 1571 1573 1574 1576 1577 1578 1579 1580 1580
1477 1479 1482 1484 1486 1488 1489 1490 1491 1493 1494 1497 1499 1501 1503 1503 1505 1507 1509 1510 1512 1514 1517 1519 1521 1524 1527 1529 1531 1533 1535 1537 1539 1540 1542 1544 1545 1546 1547 1549 1549 1550 1550 1551 1552 1552 1552 1554 1555 1555 1555 1556 1557 1557 1558 1559 1560 1560 1561 1561 1562 1563 1564 1565 1565 1566 1567 1567 1567 1568 1568 1569 1569 1569 1569 1570 1571 1572 1574 1575 1577 1578 1579 1580 1581
1475 1478 1481 1483 1484 1486 1487 1488 1490 1492 1493 1495 1497 1499 1502 1502 1503 1505 1506 1508 1510 1512 1516 1519 1521 1524 1527 1530 1532 1533 1535 1536 1538 1539 1541 1543 1544 1546 1547 1548 1549 1549 1550 1550 1551 1552 1552 1553 1554 1555 1555 1556 1556 1557 1558 1558 1559 1559 1560 1560 1561 1562 1563 1564 1565 1565 1566 1566 1567 1567 1567 1568 1568 1568 1569 1571 1571 1572 1573 1575 1577 1578 1580 1581 1582
1474 1477 1480 1481 1482 1483 1485 1487 1489 1491 1492 1494 1496 1498 1500 1501 1502 1503 1505 1507 1509 1511 1514 1517 1520 1523 1527 1530 1532 1534 1535 1536 1538 1539 1541 1542 1544 1545 1547 1548 1548 1549 1549 1550 1550 1551 1552 1553 1554 1554 1555 1555 1556 1557 1557 1558 1558 1559 1559 1560 1560 1561 1562 1563 1564 1565 1565 1566 1567 1567 1567 1567 1568 1568 1570 1571 1571 1572 1573 1575 1577 1579 1580 1581 1582
1474 1476 1479 1480 1480 1481 1482 1485 1487 1490 1493 1494 1496 1497 1499 1500 1501 1502 1504 1506 1508 1510 1513 1516 1519 1522 1526 1530 1532 1534 1536 1538 1539 1540 1542 1543 1544 1545 1546 1547 1548 1548 1549 1549 1550 1551 1552 1552 1553 1554 1554 1555 1556 1556 1557 1557 1558 1558 1559 1559 1559 1560 1561 1562 1564 1564 1564 1565 1566 1567 1567 1567 1568 1569 1569 1570 1571 1573 1573 1575 1577 1578 1580 1582 1582
1474 1476 1478 1479 1479 1480 1480 1482 1484 1488 1493 1495 1496 1497 1498 1499 1501 1502 1503 1505 1507 1509 1512 1515 1518 1521 1525 1529 1532 1534 1536 1538 1540 1541 1542 1543 1544 1545 1546 1547 1548 1548 1548 1549 1550 1550 1551 1552 1553 1553 1554 1555 1556 1556 1556 1557 1557 1558 1558 1559 1559 1560 1561 1561 1563 1563 1563 1564 1565 1566 1566 1567 1567 1568 1569 1570 1571 1573 1573 1574 1576 1578 1580 1581 1582
1474 1476 1478 1479 1479 1481 1481 1482 1482 1484 1489 1493 1495 1497 1499 1499 1500 1501 1503 1504 1506 1509 1511 1514 1518 1521 1524 1526 1529 1532 1535 1537 1539 1540 1542 1543 1544 1545 1547 1548 1548 1548 1549 1549 1549 1550 1550 1551 1552 1553 1553 1554 1555 1556 1556 1556 1557 1557 1558 1558 1559 1560 1560 1561 1562 1562 1562 1563 1564 1564 1565 1565 1566 1568 1569 1570 1570 1571 1572 1574 1576 1577 1579 1581 1582
1475 1477 1478 1479 1480 1480 1481 1482 1482 1481 1483 1487 1490 1493 1496 1498 1498 1500 1503 1504 1505 1507 1510 1513 1517 1520 1523 1524 1527 1529 1532 1535 1537 1539 1540 1542 1544 1545 1546 1547 1548 1548 1548 1548 1549 1549 1550 1550 1551 1552 1553 1554 1555 1555 1556 1556 1557 1557 1557 1558 1558 1559 1559 1560 1561 1561 1562 1562 1563 1564 1564 1565 1566 1567 1569 1570 1570 1571 1572 1574 1575 1577 1578 1579 1581
1476 1477 1478 1479 1479 1480 1481 1482 1482 1480 1481 1484 1486 1490 1494 1496 1498 1499 1500 1501 1503 1506 1511 1515 1517 1520 1523 1525 1527 1529 1531 1534 1535 1537 1539 1541 1543 1544 1545 1546 1547 1547 1548 1548 1548 1548 1549 1550 1551 1552 1553 1554 1554 1555 1555 1556 1556 1556 1557 1557 1558 1558 1559 1560 1560 1561 1561 1561 1562 1563 1564 1565 1566 1567 1568 1569 1570 1571 1571 1573 1575 1576 1577 1578 1580
1477 1477 1478 1479 1478 1478 1479 1480 1481 1480 1480 1482 1485 1490 1493 1495 1496 1497 1497 1500 1504 1508 1511 1515 1517 1520 1523 1525 1527 1530 1532 1534 1536 1537 1539 1540 1542 1543 1544 1545 1546 1546 1547 1547 1547 1548 1549 1550 1550 1551 1552 1553 1554 1554 1555 1555 1556 1556 1556 1557 1557 1558 1559 1559 1559 1560 1560 1561 1562 1562 1563 1565 1566 1566 1567 1568 1570 1571 1571 1571 1573 1575 1577 1578 1579
1477 1478 1478 1478 1478 1478 1477 1478 1480 1480 1479 1480 1484 1489 1492 1494 1495 1497 1499 1503 1506 1508 1509 1513 1516 1520 1523 1526 1528 1530 1532 1534 1535 1537 1538 1539 1541 1542 1544 1544 1545 1546 1546 1546 1547 1547 1548 1549 1550 1551 1552 1553 1553 1554 1554 1555 1555 1555 1556 1556 1557 1557 1558 1558 1559 1559 1560 1560 1561 1562 1563 1564 1565 1566 1567 1568 1569 1570 1571 1572 1573 1575 1577 1578 1578
1478 1478 1479 1478 1478 1478 1477 1478 1480 1480 1479 1479 1482 1488 1492 1495 1497 1498 1500 1502 1506 1509 1511 1513 1516 1519 1523 1525 1527 1529 1531 1533 1534 1536 1538 1539 1541 1542 1543 1544 1544 1545 1545 1546 1546 1547 1548 1549 1550 1551 1552 1553 1553 1553 1554 1554 1554 1555 1555 1555 1556 1557 1557 1558 1558 1558 1559 1560 1560 1561 1562 1563 1564 1566 1567 1567 1568 1570 1572 1573 1574 1575 1577 1577 1578
1479 1479 1479 1479 1479 1479 1479 1479 1480 1482 1481 1479 1481 1487 1492 1496 1498 1498 1499 1500 1504 1509 1511 1513 1516 1519 1522 1524 1527 1528 1530 1532 1534 1536 1537 1539 1541 1542 1543 1543 1543 1544 1544 1545 1546 1547 1548 1549 1550 1551 1552 1553 1553 1553 1553 1554 1554 1554 1555 1555 1556 1557 1557 1558 1558 1558 1558 1559 1560 1560 1561 1562 1564 1566 1567 1567 1568 1569 1571 1573 1574 1576 1577 1577 1578
1480 1480 1479 1479 1479 1480 1480 1481 1480 1482 1482 1480 1482 1486 1491 1495 1497 1498 1498 1499 1503 1507 1509 1512 1515 1518 1521 1524 1526 1528 1530 1532 1534 1536 1537 1539 1541 1542 1542 1543 1543 1543 1544 1545 1546 1546 1547 1548 1549 1551 1552 1552 1553 1553 1553 1554 1554 1554 1554 1555 1556 1557 1558 1558 1558 1558 1558 1558 1559 1560 1561 1562 1563 1565 1565 1566 1568 1570 1572 1573 1574 1576 1577 1577 1578
1480 1480 1480 1480 1480 1480 1481 1481 1482 1482 1482 1481 1482 1485 1490 1494 1496 1497 1497 1499 1503 1505 1508 1511 1514 1518 1521 1523 1525 1528 1530 1532 1534 1535 1537 1539 1540 1541 1542 1542 1542 1543 1543 1544 1545 1546 1547 1548 1549 1550 1551 1552 1552 1552 1553 1554 1554 1555 1555 1555 1556 1557 1557 1557 1558 1558 1559 1558 1559 1559 1560 1561 1563 1564 1565 1566 1568 1570 1572 1573 1574 1576 1577 1577 1578
1481 1481 1481 1481 1481 1481 1481 1482 1483 1482 1482 1481 1481 1483 1488 1493 1495 1496 1498 1500 1502 1505 1508 1511 1514 1518 1520 1522 1524 1527 1529 1530 1533 1535 1537 1538 1540 1540 1541 1541 1541 1542 1543 1543 1544 1545 1546 1548 1549 1550 1551 1551 1551 1551 1552 1553 1554 1555 1555 1556 1556 1557 1557 1558 1558 1558 1558 1558 1558 1559 1560 1560 1562 1563 1565 1567 1568 1570 1572 1573 1574 1576 1577 1577 1578
1483 1483 1483 1482 1482 1483 1482 1483 1484 1483 1482 1481 1481 1483 1487 1491 1494 1497 1499 1500 1503 1505 1508 1510 1514 1516 1518 1520 1522 1523 1525 1527 1530 1533 1536 1538 1539 1539 1540 1540 1540 1541 1542 1542 1544 1545 1546 1547 1549 1550 1551 1551 1551 1551 1552 1553 1553 1554 1555 1556 1556 1557 1557 1557 1558 1558 1558 1558 1558 1559 1559 1560 1562 1563 1565 1567 1568 1570 1572 1573 1574 1575 1576 1577 1578
1484 1484 1484 1483 1483 1484 1483 1484 1484 1483 1482 1482 1482 1484 1488 1492 1494 1497 1500 1501 1503 1505 1507 1509 1512 1514 1516 1516 1518 1520 1523 1526 1529 1531 1534 1536 1538 1538 1539 1539 1540 1540 1541 1542 1543 1545 1546 1548 1549 1550 1551 1551 1551 1551 1552 1552 1553 1554 1554 1555 1556 1556 1557 1557 1557 1558 1558 1558 1558 1559 1559 1560 1562 1563 1564 1566 1568 1570 1571 1573 1574 1575 1576 1577 1577
1486 1485 1485 1484 1484 1484 1484 1484 1484 1483 1482 1483 1484 1485 1489 1493 1495 1497 1499 1501 1503 1505 1507 1509 1511 1513 1514 1514 1517 1520 1522 1525 1528 1530 1533 1535 1537 1538 1538 1539 1539 1540 1540 1542 1543 1545 1546 1547 1548 1549 1550 1550 1551 1551 1552 1552 1553 1554 1554 1555 1555 1556 1556 1557 1557 1558 1558 1558 1558 1559 1559 1560 1561 1563 1564 1565 1567 1568 1570 1572 1573 1574 1575 1576 1576
1487 1487 1486 1484 1484 1484 1484 1484 1484 1484 1484 1485 1486 1486 1489 1493 1494 1496 1498 1500 1503 1504 1506 1508 1510 1512 1514 1516 1519 1521 1522 1524 1526 1529 1532 1534 1535 1536 1537 1538 1539 1539 1540 1541 1543 1544 1545 1547 1548 1548 1549 1550 1550 1551 1551 1552 1553 1553 1554 1554 1555 1556 1557 1557 1557 1558 1558 1558 1559 1559 1559 1560 1561 1562 1563 1565 1566 1567 1568 1570 1571 1572 1573 1574 1574
1488 1488 1487 1485 1485 1483 1483 1484 1484 1484 1485 1486 1487 1487 1489 1492 1494 1495 1496 1498 1501 1503 1505 1507 1509 1511 1513 1516 1518 1519 1521 1523 1525 1528 1530 1532 1534 1535 1536 1537 1539 1539 1540 1541 1543 1544 1545 1546 1547 1547 1548 1548 1549 1550 1550 1551 1552 1553 1554 1554 1555 1555 1556 1557 1558 1558 1558 1559 1559 1559 1559 1560 1561 1562 1563 1564 1565 1566 1567 1569 1570 1570 1571 1572 1573
1490 1489 1488 1487 1486 1484 1484 1484 1484 1485 1486 1487 1488 1488 1490 1492 1494 1494 1495 1497 1500 1502 1504 1506 1508 1510 1513 1515 1516 1517 1520 1522 1524 1526 1529 1530 1532 1534 1535 1537 1538 1539 1540 1541 1543 1544 1545 1547 1547 1547 1548 1548 1548 1549 1549 1550 1551 1552 1553 1554 1554 1555 1556 1557 1558 1558 1558 1559 1559 1559 1559 1560 1561 1562 1563 1564 1565 1566 1567 1568 1569 1569 1570 1571 1572
1492 1491 1490 1488 1487 1487 1486 1486 1486 1486 1487 1488 1489 1490 1491 1493 1494 1493 1495 1497 1499 1500 1502 1504 1507 1509 1511 1513 1514 1516 1518 1520 1522 1525 1527 1529 1531 1533 1535 1537 1538 1539 1540 1541 1542 1544 1545 1546 1546 1547 1547 1548 1549 1549 1550 1550 1551 1551 1552 1553 1554 1555 1555 1556 1557 1558 1559 1559 1559 1559 1559 1560 1560 1561 1562 1563 1564 1565 1566 1567 1567 1568 1569 1569 1570
1495 1494 1492 1491 1490 1489 1488 1488 1488 1488 1489 1489 1490 1491 1493 1494 1494 1494 1495 1496 1498 1499 1500 1503 1506 1508 1509 1511 1514 1515 1517 1519 1522 1524 1527 1529 1531 1533 1535 1537 1538 1539 1540 1541 1542 1543 1544 1545 1545 1547 1547 1548 1549 1549 1550 1550 1551 1551 1552 1552 1554 1554 1555 1556 1557 1557 1558 1559 1559 1559 1559 1559 1560 1561 1561 1562 1563 1564 1564 1565 1566 1566 1567 1567 1568
1498 1496 1495 1494 1492 1492 1491 1491 1491 1491 1491 1492 1492 1494 1495 1496 1496 1497 1497 1498 1500 1501 1502 1504 1507 1510 1511 1513 1515 1517 1519 1521 1523 1525 1527 1530 1532 1533 1535 1537 1538 1539 1539 1541 1542 1543 1544 1544 1545 1546 1547 1547 1548 1549 1550 1550 1551 1551 1552 1552 1553 1554 1555 1556 1556 1556 1557 1557 1558 1558 1559 1559 1559 1560 1561 1561 1562 1562 1563 1563 1564 1564 1565 1565 1566
1500 1499 1498 1497 1495 1494 1493 1493 1493 1493 1494 1494 1494 1495 1495 1496 1498 1499 1500 1500 1502 1504 1505 1507 1510 1512 1514 1515 1516 1518 1520 1522 1524 1526 1528 1529 1531 1532 1534 1536 1537 1538 1539 1540 1541 1542 1543 1544 1545 1546 1546 1547 1548 1549 1550 1550 1550 1551 1551 1552 1553 1554 1554 1555 1555 1555 1556 1556 1557 1557 1558 1559 1559 1559 1560 1560 1561 1561 1561 1562 1562 1562 1563 1563 1563
1503 1502 1501 1500 1498 1497 1497 1496 1496 1496 1497 1497 1497 1497 1497 1498 1499 1500 1501 1502 1504 1506 1508 1509 1512 1514 1515 1516 1517 1519 1521 1522 1524 1526 1528 1529 1530 1531 1533 1534 1536 1538 1539 1540 1541 1542 1542 1543 1544 1545 1546 1547 1547 1548 1549 1550 1550 1551 1551 1552 1552 1553 1553 1554 1554 1555 1555 1555 1556 1557 1557 1558 1558 1559 1559 1559 1560 1560 1560 1560 1560 1561 1561 1561 1561
1505 1505 1504 1503 1502 1501 1501 1501 1500 1500 1500 1500 1501 1501 1501 1501 1502 1502 1503 1505 1506 1508 1509 1511 1513 1515 1516 1517 1518 1520 1522 1523 1525 1526 1528 1529 1531 1532 1533 1534 1536 1538 1539 1539 1540 1541 1542 1543 1544 1544 1545 1546 1547 1547 1548 1549 1549 1550 1550 1551 1552 1552 1552 1553 1553 1554 1554 1554 1555 1555 1556 1556 1557 1557 1557 1557 1558 1558 1558 1558 1558 1558 1559 1558 1558
1508 1507 1506 1506 1506 1506 1506 1506 1505 1505 1504 1504 1504 1504 1504 1504 1505 1504 1505 1507 1509 1510 1511 1513 1516 1517 1517 1519 1520 1521 1523 1525 1526 1527 1528 1530 1532 1533 1533 1535 1536 1537 1538 1538 1539 1539 1540 1542 1542 1543 1544 1545 1545 1546 1547 1547 1548 1549 1549 1550 1551 1551 1551 1551 1552 1552 1553 1553 1553 1554 1554 1554 1555 1554 1554 1554 1555 1555 1556 1556 1556 1556 1556 1556 1556
1511 1510 1510 1510 1509 1509 1509 1509 1509 1509 1509 1510 1510 1509 1508 1508 1508 1508 1508 1510 1512 1514 1516 1517 1518 1518 1519 1520 1522 1523 1525 1526 1527 1528 1529 1531 1532 1533 1534 1534 1535 1536 1537 1537 1538 1539 1540 1540 1541 1542 1543 1544 1544 1545 1546 1546 1547 1547 1548 1549 1549 1550 1550 1550 1550 1551 1551 1551 1551 1551 1552 1552 1551 1551 1551 1552 1552 1552 1553 1553 1553 1553 1553 1553 1553
1513 1513 1513 1513 1513 1513 1513 1512 1512 1512 1514 1515 1516 1515 1514 1512 1512 1513 1513 1514 1516 1518 1519 1520 1520 1521 1522 1523 1524 1526 1527 1528 1529 1530 1530 1531 1532 1533 1534 1534 1535 1536 1537 1537 1538 1539 1539 1540 1540 1541 1542 1543 1543 1544 1545 1545 1546 1546 1547 1547 1548 1548 1548 1548 1549 1549 1549 1549 1549 1549 1549 1549 1549 1548 1549 1549 1549 1549 1550 1550 1550 1550 1549 1549 1550
1516 1516 1516 1516 1516 1516 1515 1515 1515 1516 1517 1518 1519 1519 1518 1516 1516 1517 1517 1517 1519 1521 1521 1522 1522 1523 1524 1526 1527 1528 1529 1530 1530 1531 1532 1532 1533 1533 1534 1535 1535 1536 1537 1537 1538 1538 1539 1540 1540 1541 1541 1542 1542 1543 1543 1544 1544 1545 1545 1545 1546 1546 1546 1546 1547 1547 1547 1547 1547 1547 1546 1546 1546 1546 1546 1546 1546 1546 1546 1546 1546 1546 1546 1546 1546
1518 1519 1519 1518 1518 1518 1518 1518 1519 1519 1520 1521 1521 1521 1520 1519 1518 1518 1519 1519 1520 1521 1522 1523 1523 1525 1526 1527 1528 1529 1529 1530 1531 1531 1532 1533 1533 1534 1534 1535 1535 1536 1536 1537 1537 1538 1538 1539 1539 1540 1540 1540 1541 1541 1541 1541 1542 1542 1542 1543 1543 1543 1543 1544 1544 1544 1544 1544 1545 1544 1542 1541 1542 1543 1542 1542 1542 1541 1541 1541 1542 1542 1542 1542 1541
1520 1521 1522 1522 1521 1521 1521 1522 1522 1523 1523 1523 1523 1523 1522 1521 1520 1520 1520 1521 1521 1522 1523 1523 1524 1525 1526 1527 1528 1529 1530 1530 1531 1531 1532 1532 1533 1533 1534 1534 1534 1535 1535 1536 1536 1536 1537 1537 1537 1537 1538 1538 1538 1538 1538 1538 1538 1539 1539 1539 1539 1539 1540 1540 1540 1540 1541 1540 1540 1540 1538 1537 1538 1539 1538 1538 1537 1537 1536 1536 1536 1537 1537 1537 1537
1523 1524 1525 1525 1525 1524 1524 1525 1525 1525 1525 1525 1525 1525 1524 1523 1522 1521 1522 1522 1523 1523 1524 1524 1525 1526 1527 1528 1528 1529 1530 1531 1531 1532 1532 1532 1533 1533 1533 1533 1533 1534 1534 1535 1535 1535 1535 1535 1535 1535 1535 1535 1535 1535 1535 1535 1535 1535 1535 1535 1535 1535 1535 1536 1535 1536 1536 1536 1535 1534 1533 1533 1533 1533 1533 1533 1533 1532 1532 1532 1532 1532 1532 1532 1532
1527 1527 1527 1528 1527 1527 1527 1527 1527 1527 1527 1527 1527 1527 1526 1525 1524 1524 1524 1524 1524 1525 1525 1526 1526 1527 1527 1528 1528 1529 1530 1530 1531 1531 1531 1532 1532 1532 1532 1532 1532 1533 1533 1533 1533 1534 1534 1534 1534 1534 1534 1533 1533 1532 1532 1532 1532 1532 1531 1531 1531 1531 1531 1531 1531 1531 1531 1530 1529 1528 1527 1528 1528 1528 1527 1527 1527 1527 1527 1527 1527 1527 1527 1527 1526
1530 1530 1531 1531 1530 1530 1530 1529 1529 1529 1529 1529 1528 1528 1528 1528 1527 1526 1526 1526 1526 1527 1527 1528 1528 1528 1528 1528 1529 1529 1530 1530 1530 1531 1531 1531 1531 1531 1531 1531 1531 1532 1532 1532 1532 1532 1532 1532 1532 1532 1532 1532 1531 1530 1529 1529 1529 1528 1528 1528 1528 1527 1527 1526 1526 1526 1526 1525 1524 1523 1523 1523 1523 1522 1522 1521 1521 1521 1521 1521 1522 1522 1522 1522 1521
1533 1533 1533 1533 1533 1533 1532 1532 1531 1531 1531 1530 1530 1530 1530 1530 1529 1529 1528 1528 1528 1529 1529 1529 1529 1529 1529 1529 1529 1530 1530 1530 1530 1531 1531 1531 1531 1531 1531 1531 1531 1531 1531 1531 1531 1531 1531 1531 1531 1531 1531 1531 1530 1529 1528 1527 1526 1526 1525 1525 1525 1524 1524 1523 1523 1522 1521 1520 1520 1520 1520 1520 1519 1518 1517 1517 1517 1516 1516 1516 1516 1516 1516 1516 1516
1535 1535 1535 1535 1535 1535 1534 1534 1533 1533 1532 1532 1532 1532 1531 1531 1531 1530 1530 1530 1530 1530 1530 1530 1530 1530 1530 1530 1530 1530 1530 1530 1530 1530 1530 1531 1530 1531 1531 1530 1530 1530 1530 1530 1530 1530 1531 1531 1531 1530 1530 1529 1529 1529 1527 1526 1525 1524 1523 1522 1522 1521 1520 1520 1520 1519 1517 1516 1516 1516 1516 1516 1515 1514 1514 1514 1513 1513 1513 1512 1512 1511 1511 1510 1511
1537 1537 1537 1537 1537 1536 1536 1535 1535 1534 1534 1534 1533 1533 1533 1532 1532 1532 1532 1532 1532 1532 1532 1531 1531 1531 1530 1530 1530 1530 1530 1530 1530 1530 1530 1530 1530 1530 1530 1530 1530 1530 1530 1530 1530 1530 1530 1530 1529 1529 1529 1529 1528 1528 1526 1524 1523 1522 1522 1521 1520 1519 1518 1517 1517 1516 1514 1514 1514 1513 1513 1512 1512 1511 1511 1511 1511 1511 1511 1510 1509 1508 1507 1507 1506
1538 1538 1538 1539 1538 1538 1537 1537 1537 1536 1536 1535 1535 1534 1534 1533 1533 1533 1533 1533 1532 1532 1532 1531 1531 1530 1530 1530 1530 1530 1530 1530 1530 1530 1530 1530 1530 1530 1530 1530 1529 1529 1529 1529 1529 1529 1529 1529 1528 1528 1528 1527 1527 1526 1525 1524 1522 1521 1520 1519 1518 1517 1516 1515 1514 1513 1512 1512 1511 1511 1510 1510 1510 1510 1510 1510 1510 1509 1509 1508 1507 1506 1505 1504 1503
1539 1539 1539 1540 1539 1539 1539 1539 1538 1538 1537 1537 1536 1536 1535 1535 1534 1534 1533 1533 1532 1532 1532 1531 1530 1530 1530 1530 1530 1530 1530 1530 1531 1531 1531 1530 1529 1529 1529 1529 1529 1529 1529 1529 1529 1529 1528 1528 1527 1527 1527 1526 1526 1525 1524 1523 1521 1520 1519 1518 1516 1515 1514 1513 1512 1512 1511 1510 1510 1509 1510 1510 1510 1510 1509 1508 1507 1506 1506 1505 1504 1503 1502 1501 1500
1540 1540 1540 1540 1540 1540 1540 1539 1539 1539 1539 1538 1538 1537 1536 1536 1535 1535 1534 1534 1533 1533 1532 1531 1531 1530 1530 1530 1530 1530 1531 1531 1532 1532 1532 1531 1531 1530 1530 1530 1529 1529 1529 1529 1528 1528 1527 1527 1526 1526 1525 1525 1524 1523 1522 1521 1520 1519 1517 1516 1515 1514 1513 1512 1511 1511 1510 1509 1509 1509 1509 1509 1508 1508 1507 1506 1505 1503 1502 1502 1501 1501 1500 1498 1497